When you browse on this site, cookies collect data to enhance your experience and personalize the content and advertising you see.
Visit our Privacy Policy to learn more. By continuing to use the site, you agree to this use of cookies and data.
  • în România
  • Lista ţărilor
  • Pe 7 zile
  • Temperatura apei
  • Meteo pe hartă
  • Widget-uri
  • user-avatar
    Intrare

    Meteo pe oră la Zvoyskie Vyselki

    Astăzi, 18 Septembrie, Miercuri

    Timp Temperatura Precipitaţii Vânt Presiune Umiditate
    00:00 +6°C° 0 mm 4 m/s 735 mmHg 86%
    01:00 +5°C° 0 mm 4 m/s 735 mmHg 87%
    02:00 +5°C° 0 mm 4 m/s 735 mmHg 89%
    03:00 +5°C° 0 mm 4 m/s 735 mmHg 90%
    04:00 +5°C° 0 mm 3 m/s 734 mmHg 90%
    05:00 +4°C° 0 mm 3 m/s 734 mmHg 90%
    06:00 +4°C° 0 mm 3 m/s 734 mmHg 90%
    07:00 +7°C° 0 mm 3 m/s 734 mmHg 84%
    08:00 +8°C° 0 mm 3 m/s 734 mmHg 79%
    09:00 +8°C° 0 mm 4 m/s 734 mmHg 74%
    10:00 +9°C° 0.6 mm 3 m/s 733 mmHg 79%
    11:00 +9°C° 0.6 mm 3 m/s 733 mmHg 84%
    12:00 +8°C° 0.6 mm 3 m/s 732 mmHg 89%
    13:00 +9°C° 0.6 mm 2 m/s 732 mmHg 88%
    14:00 +9°C° 0.6 mm 2 m/s 732 mmHg 87%
    15:00 +10°C° 0.6 mm 1 m/s 731 mmHg 85%
    16:00 +9°C° 0.1 mm 2 m/s 731 mmHg 86%
    17:00 +9°C° 0.1 mm 2 m/s 731 mmHg 87%
    18:00 +8°C° 0.1 mm 2 m/s 730 mmHg 88%
    19:00 +8°C° 0.1 mm 3 m/s 731 mmHg 90%
    20:00 +7°C° 0.1 mm 4 m/s 731 mmHg 91%
    21:00 +6°C° 0.1 mm 4 m/s 731 mmHg 93%
    22:00 +6°C° 0 mm 4 m/s 732 mmHg 92%
    23:00 +6°C° 0 mm 5 m/s 732 mmHg 92%

    Mâine, 19 Septembrie, Joi

    Timp Temperatura Precipitaţii Vânt Presiune Umiditate
    00:00 +5°C° 0 mm 5 m/s 733 mmHg 91%
    01:00 +5°C° 0 mm 4 m/s 734 mmHg 92%
    02:00 +4°C° 0 mm 4 m/s 734 mmHg 93%
    03:00 +4°C° 0 mm 4 m/s 735 mmHg 94%
    04:00 +4°C° 0 mm 4 m/s 736 mmHg 95%
    05:00 +4°C° 0 mm 4 m/s 736 mmHg 96%
    06:00 +3°C° 0 mm 5 m/s 737 mmHg 96%
    07:00 +3°C° 0 mm 5 m/s 738 mmHg 95%
    08:00 +5°C° 0 mm 5 m/s 738 mmHg 94%
    09:00 +5°C° 0 mm 5 m/s 739 mmHg 94%
    10:00 +6°C° 0 mm 5 m/s 740 mmHg 91%
    11:00 +6°C° 0 mm 4 m/s 740 mmHg 88%
    12:00 +7°C° 0 mm 4 m/s 741 mmHg 86%
    13:00 +8°C° 0.2 mm 4 m/s 741 mmHg 81%
    14:00 +8°C° 0.2 mm 4 m/s 741 mmHg 77%
    15:00 +9°C° 0.2 mm 5 m/s 742 mmHg 73%
    16:00 +10°C° 0.2 mm 4 m/s 742 mmHg 76%
    17:00 +8°C° 0.2 mm 4 m/s 742 mmHg 79%
    18:00 +7°C° 0.2 mm 4 m/s 743 mmHg 82%
    19:00 +7°C° 0 mm 3 m/s 743 mmHg 85%
    20:00 +5°C° 0 mm 3 m/s 743 mmHg 88%
    21:00 +5°C° 0 mm 3 m/s 744 mmHg 91%
    22:00 +4°C° 0.1 mm 3 m/s 744 mmHg 91%
    23:00 +5°C° 0.1 mm 2 m/s 744 mmHg 91%

    Poimâine, 20 Septembrie, Vineri

    Timp Temperatura Precipitaţii Vânt Presiune Umiditate
    00:00 +5°C° 0.1 mm 2 m/s 744 mmHg 91%
    01:00 +5°C° 0 mm 2 m/s 744 mmHg 92%
    02:00 +4°C° 0 mm 2 m/s 744 mmHg 93%
    03:00 +4°C° 0 mm 2 m/s 744 mmHg 94%
    04:00 +3°C° 0 mm 2 m/s 744 mmHg 93%
    05:00 +4°C° 0 mm 1 m/s 744 mmHg 93%
    06:00 +4°C° 0 mm 1 m/s 744 mmHg 93%
    07:00 +5°C° 0 mm 1 m/s 744 mmHg 89%
    08:00 +6°C° 0 mm 1 m/s 744 mmHg 84%
    09:00 +7°C° 0 mm 1 m/s 744 mmHg 80%
    10:00 +7°C° 0 mm 1 m/s 744 mmHg 73%
    11:00 +8°C° 0 mm 1 m/s 744 mmHg 66%
    12:00 +9°C° 0 mm 1 m/s 745 mmHg 60%
    13:00 +9°C° 0 mm 1 m/s 744 mmHg 57%
    14:00 +10°C° 0 mm 1 m/s 744 mmHg 54%
    15:00 +10°C° 0 mm 1 m/s 744 mmHg 52%
    16:00 +9°C° 0 mm 1 m/s 744 mmHg 56%
    17:00 +9°C° 0 mm 1 m/s 744 mmHg 60%
    18:00 +7°C° 0 mm 2 m/s 744 mmHg 64%
    19:00 +7°C° 0 mm 1 m/s 745 mmHg 65%
    20:00 +7°C° 0 mm 1 m/s 745 mmHg 66%
    21:00 +6°C° 0 mm 1 m/s 745 mmHg 67%
    22:00 +6°C° 0 mm 1 m/s 745 mmHg 68%
    23:00 +6°C° 0 mm 1 m/s 745 mmHg 69%

    21 Septembrie, Sâmbătă

    Timp Temperatura Precipitaţii Vânt Presiune Umiditate
    00:00 +5°C° 0 mm 1 m/s 746 mmHg 70%
    01:00 +5°C° 0 mm 1 m/s 746 mmHg 74%
    02:00 +4°C° 0 mm 2 m/s 746 mmHg 77%
    03:00 +3°C° 0 mm 2 m/s 746 mmHg 80%
    04:00 +3°C° 0 mm 2 m/s 746 mmHg 81%
    05:00 +3°C° 0 mm 2 m/s 746 mmHg 81%
    06:00 +3°C° 0 mm 2 m/s 747 mmHg 82%
    07:00 +3°C° 0 mm 3 m/s 747 mmHg 80%
    08:00 +3°C° 0 mm 3 m/s 747 mmHg 77%
    09:00 +4°C° 0 mm 3 m/s 748 mmHg 75%
    10:00 +5°C° 0 mm 3 m/s 748 mmHg 69%
    11:00 +8°C° 0 mm 3 m/s 748 mmHg 62%
    12:00 +9°C° 0 mm 3 m/s 748 mmHg 56%
    13:00 +9°C° 0 mm 3 m/s 748 mmHg 55%
    14:00 +9°C° 0 mm 3 m/s 748 mmHg 53%
    15:00 +9°C° 0 mm 3 m/s 747 mmHg 52%
    16:00 +9°C° 0 mm 2 m/s 747 mmHg 56%
    17:00 +8°C° 0 mm 2 m/s 747 mmHg 61%
    18:00 +8°C° 0 mm 1 m/s 747 mmHg 65%
    19:00 +6°C° 0 mm 2 m/s 747 mmHg 69%
    20:00 +5°C° 0 mm 2 m/s 747 mmHg 73%
    21:00 +4°C° 0 mm 3 m/s 747 mmHg 77%
    22:00 +4°C° 0 mm 3 m/s 746 mmHg 77%
    23:00 +4°C° 0 mm 3 m/s 746 mmHg 78%

    22 Septembrie, Duminică

    Timp Temperatura Precipitaţii Vânt Presiune Umiditate
    00:00 +3°C° 0 mm 4 m/s 745 mmHg 78%
    01:00 +2°C° 0.1 mm 5 m/s 744 mmHg 79%
    02:00 +3°C° 0.1 mm 6 m/s 743 mmHg 80%
    03:00 +3°C° 0.1 mm 7 m/s 743 mmHg 81%
    04:00 +3°C° 0.4 mm 7 m/s 741 mmHg 85%
    05:00 +2°C° 0.4 mm 8 m/s 740 mmHg 88%
    06:00 +2°C° 0.4 mm 9 m/s 739 mmHg 91%
    07:00 +5°C° 0.9 mm 8 m/s 738 mmHg 91%
    08:00 +6°C° 0.9 mm 8 m/s 737 mmHg 91%
    09:00 +7°C° 0.9 mm 8 m/s 736 mmHg 91%
    10:00 +8°C° 0.3 mm 9 m/s 736 mmHg 85%
    11:00 +10°C° 0.3 mm 9 m/s 736 mmHg 79%
    12:00 +9°C° 0.3 mm 10 m/s 736 mmHg 72%
    13:00 +9°C° 0 mm 10 m/s 737 mmHg 63%
    14:00 +9°C° 0 mm 10 m/s 737 mmHg 54%
    15:00 +8°C° 0 mm 11 m/s 737 mmHg 44%
    16:00 +7°C° 0 mm 10 m/s 738 mmHg 47%
    17:00 +6°C° 0 mm 9 m/s 739 mmHg 50%
    18:00 +5°C° 0 mm 8 m/s 739 mmHg 54%
    19:00 +5°C° 0 mm 8 m/s 740 mmHg 55%
    20:00 +4°C° 0 mm 8 m/s 740 mmHg 56%
    21:00 +2°C° 0 mm 8 m/s 740 mmHg 58%
    22:00 +2°C° 0 mm 8 m/s 741 mmHg 61%
    23:00 +1°C° 0 mm 8 m/s 741 mmHg 64%

    23 Septembrie, Luni

    Timp Temperatura Precipitaţii Vânt Presiune Umiditate
    00:00 +1°C° 0 mm 8 m/s 742 mmHg 67%
    01:00 0°C° 0 mm 7 m/s 742 mmHg 70%
    02:00 0°C° 0 mm 7 m/s 743 mmHg 73%
    03:00 0°C° 0 mm 7 m/s 743 mmHg 76%
    04:00 -1°C° 0 mm 6 m/s 744 mmHg 78%
    05:00 -1°C° 0 mm 6 m/s 744 mmHg 80%
    06:00 -1°C° 0 mm 6 m/s 745 mmHg 82%
    07:00 +1°C° 0 mm 5 m/s 745 mmHg 79%
    08:00 +1°C° 0 mm 5 m/s 745 mmHg 76%
    09:00 +2°C° 0 mm 5 m/s 746 mmHg 73%
    10:00 +3°C° 0 mm 5 m/s 746 mmHg 69%
    11:00 +6°C° 0 mm 4 m/s 746 mmHg 64%
    12:00 +8°C° 0 mm 3 m/s 746 mmHg 60%
    13:00 +8°C° 0 mm 3 m/s 746 mmHg 58%
    14:00 +8°C° 0 mm 3 m/s 746 mmHg 56%
    15:00 +9°C° 0 mm 3 m/s 745 mmHg 54%
    16:00 +8°C° 0 mm 2 m/s 745 mmHg 57%
    17:00 +7°C° 0 mm 2 m/s 745 mmHg 60%
    18:00 +8°C° 0 mm 1 m/s 745 mmHg 63%
    19:00 +7°C° 0.3 mm 1 m/s 745 mmHg 71%
    20:00 +5°C° 0.3 mm 2 m/s 745 mmHg 79%
    21:00 +4°C° 0.3 mm 2 m/s 745 mmHg 87%
    22:00 +4°C° 0.4 mm 2 m/s 745 mmHg 90%
    23:00 +5°C° 0.4 mm 1 m/s 745 mmHg 93%
    Arată mai mult